Location: Ben Robins Landing
(38.6582°N, 75.1566°W)
Time: 23:43:39
(UTC+00:00)

Cosmos 372 Rocket - Pass Details

Date: 10 September 2024
Orbit: 734 x 765 km, 74.1° (Epoch: 14 October)

Event Time Altitude Azimuth Distance (km) Brightness Sun altitude
Rises 23:33:54 0° 345° (NNW) 3,208 7.6 -4.3°
Reaches altitude 10° 23:36:18 10° 348° (NNW) 2,285 6.8 -4.8°
Maximum altitude 23:41:26 62° 69° (ENE) 851 4.0 -5.8°
Drops below altitude 10° 23:46:34 10° 151° (SSE) 2,287 6.1 -6.8°
Sets 23:48:58 0° 154° (SSE) 3,212 6.9 -7.2°
